TimeEDT,TemperatureF,Dew PointF,Humidity,Sea Level PressureIn,VisibilityMPH,Wind Direction,Wind SpeedMPH,Gust SpeedMPH,PrecipitationIn,Events,Conditions,WindDirDegrees,DateUTC
12:15 AM,17.1,6.3,63,30.21,10.0,SE,10.4,18.4,N/A,,Clear,140,2013-03-18 04:15:00
12:36 AM,16.7,6.4,64,30.20,10.0,SE,9.2,19.6,N/A,,Clear,140,2013-03-18 04:36:00
12:55 AM,16.5,6.4,65,30.20,10.0,SSE,8.1,-,N/A,,Clear,150,2013-03-18 04:55:00
1:16 AM,16.3,6.6,66,30.19,10.0,SSE,6.9,-,N/A,,Clear,150,2013-03-18 05:16:00
1:36 AM,16.3,6.8,66,30.19,10.0,SSE,9.2,-,N/A,,Clear,150,2013-03-18 05:36:00
1:55 AM,15.8,7.0,68,30.19,10.0,SSE,10.4,-,N/A,,Clear,160,2013-03-18 05:55:00
2:16 AM,15.8,6.8,68,30.18,10.0,SSE,8.1,-,N/A,,Clear,150,2013-03-18 06:16:00
2:36 AM,16.2,6.8,67,30.18,10.0,SE,8.1,-,N/A,,Clear,140,2013-03-18 06:36:00
2:55 AM,15.8,7.0,68,30.18,10.0,SSE,6.9,-,N/A,,Clear,150,2013-03-18 06:55:00
3:16 AM,16.0,7.2,68,30.17,10.0,SE,6.9,-,N/A,,Clear,140,2013-03-18 07:16:00
3:35 AM,16.3,7.3,68,30.16,10.0,SE,8.1,-,N/A,,Clear,130,2013-03-18 07:35:00
3:56 AM,16.7,7.7,68,30.15,10.0,SE,8.1,-,N/A,,Clear,130,2013-03-18 07:56:00
4:16 AM,17.4,8.6,68,30.14,10.0,ESE,10.4,16.1,N/A,,Clear,120,2013-03-18 08:16:00
4:35 AM,18.5,9.7,68,30.12,10.0,ESE,12.7,18.4,N/A,,Clear,120,2013-03-18 08:35:00
4:56 AM,19.0,10.9,71,30.11,10.0,ESE,11.5,17.3,N/A,,Clear,120,2013-03-18 08:56:00
5:16 AM,19.4,12.0,73,30.10,10.0,ESE,9.2,-,N/A,,Clear,120,2013-03-18 09:16:00
5:35 AM,19.4,12.9,76,30.10,10.0,SE,8.1,-,N/A,,Clear,130,2013-03-18 09:35:00
5:56 AM,18.9,12.9,78,30.09,10.0,SE,9.2,-,N/A,,Clear,130,2013-03-18 09:56:00
6:16 AM,20.1,13.3,75,30.09,10.0,SE,10.4,21.9,N/A,,Clear,130,2013-03-18 10:16:00
6:35 AM,20.8,13.1,72,30.08,10.0,ESE,11.5,19.6,N/A,,Clear,120,2013-03-18 10:35:00
6:56 AM,20.7,13.6,74,30.08,10.0,ESE,10.4,18.4,N/A,,Clear,120,2013-03-18 10:56:00
7:16 AM,21.2,14.0,74,30.07,10.0,SE,10.4,19.6,N/A,,Clear,130,2013-03-18 11:16:00
7:35 AM,21.9,15.1,75,30.06,10.0,ESE,12.7,21.9,N/A,,Clear,120,2013-03-18 11:35:00
7:56 AM,23.0,16.0,74,30.04,10.0,SE,11.5,23.0,N/A,,Clear,130,2013-03-18 11:56:00
8:16 AM,23.9,17.1,75,30.03,10.0,ESE,12.7,23.0,N/A,,Clear,120,2013-03-18 12:16:00
8:35 AM,24.4,17.6,75,30.02,10.0,ESE,13.8,20.7,N/A,,Clear,120,2013-03-18 12:35:00
8:56 AM,25.0,18.0,75,30.02,10.0,ESE,11.5,20.7,N/A,,Clear,120,2013-03-18 12:56:00
9:16 AM,25.7,18.3,74,30.01,10.0,ESE,16.1,25.3,N/A,,Scattered Clouds,120,2013-03-18 13:16:00
9:35 AM,26.6,18.5,71,29.99,10.0,ESE,17.3,28.8,N/A,,Scattered Clouds,120,2013-03-18 13:35:00
9:56 AM,27.3,18.5,69,29.97,10.0,ESE,16.1,28.8,N/A,,Scattered Clouds,110,2013-03-18 13:56:00
10:16 AM,28.2,18.5,67,29.97,10.0,ESE,16.1,28.8,N/A,,Clear,110,2013-03-18 14:16:00
10:35 AM,29.1,19.9,69,29.96,10.0,ESE,17.3,28.8,N/A,,Clear,110,2013-03-18 14:35:00
10:56 AM,30.0,18.9,63,29.94,10.0,ESE,16.1,32.2,N/A,,Scattered Clouds,110,2013-03-18 14:56:00
11:16 AM,30.2,19.0,63,29.92,7.0,ESE,17.3,31.1,N/A,,Clear,110,2013-03-18 15:16:00
11:35 AM,30.7,17.8,59,29.90,10.0,ESE,17.3,28.8,N/A,,Clear,110,2013-03-18 15:35:00
11:56 AM,30.2,18.7,62,29.89,10.0,ESE,18.4,33.4,N/A,,Clear,110,2013-03-18 15:56:00
12:16 PM,30.2,19.2,64,29.88,10.0,East,18.4,34.5,N/A,,Clear,100,2013-03-18 16:16:00
12:35 PM,30.4,19.8,65,29.86,7.0,East,20.7,34.5,N/A,,Clear,100,2013-03-18 16:35:00
12:56 PM,30.6,20.7,67,29.85,10.0,East,17.3,31.1,N/A,,Scattered Clouds,100,2013-03-18 16:56:00
1:16 PM,30.6,20.3,66,29.82,7.0,East,23.0,35.7,N/A,,Scattered Clouds,100,2013-03-18 17:16:00
1:35 PM,30.9,20.7,66,29.79,7.0,East,18.4,33.4,N/A,,Scattered Clouds,100,2013-03-18 17:35:00
1:56 PM,30.7,20.3,65,29.78,7.0,East,19.6,32.2,N/A,,Clear,90,2013-03-18 17:56:00
2:16 PM,31.1,20.7,65,29.77,10.0,East,24.2,39.1,N/A,,Scattered Clouds,100,2013-03-18 18:16:00
2:35 PM,31.5,19.9,62,29.76,7.0,East,19.6,38.0,N/A,,Scattered Clouds,100,2013-03-18 18:35:00
2:56 PM,31.6,19.4,61,29.75,10.0,ESE,18.4,44.9,N/A,,Clear,110,2013-03-18 18:56:00
3:15 PM,31.6,21.9,67,29.73,10.0,East,26.5,34.5,N/A,,Mostly Cloudy,100,2013-03-18 19:15:00
3:35 PM,32.2,22.1,66,29.70,10.0,East,20.7,34.5,N/A,,Mostly Cloudy,100,2013-03-18 19:35:00
3:56 PM,31.5,21.2,66,29.69,7.0,East,20.7,34.5,N/A,,Overcast,100,2013-03-18 19:56:00
4:16 PM,31.3,21.2,66,29.67,10.0,East,21.9,40.3,N/A,,Overcast,100,2013-03-18 20:16:00
4:35 PM,31.1,22.3,70,29.66,10.0,East,20.7,39.1,N/A,,Overcast,100,2013-03-18 20:35:00
4:56 PM,30.2,23.5,76,29.66,10.0,ESE,20.7,32.2,N/A,,Overcast,110,2013-03-18 20:56:00
5:15 PM,30.7,21.0,67,29.65,10.0,ESE,20.7,38.0,N/A,,Overcast,110,2013-03-18 21:15:00
5:36 PM,30.6,22.1,71,29.64,10.0,ESE,19.6,35.7,N/A,,Overcast,110,2013-03-18 21:36:00
5:55 PM,30.6,22.1,71,29.64,2.5,ESE,19.6,32.2,N/A,Snow,Light Snow,110,2013-03-18 21:55:00
6:15 PM,29.3,24.3,81,29.63,0.8,ESE,16.1,36.8,N/A,Snow,Light Snow,110,2013-03-18 22:15:00
6:36 PM,29.1,25.5,86,29.62,0.8,ESE,16.1,27.6,N/A,Snow,Light Snow,110,2013-03-18 22:36:00
6:55 PM,29.1,26.6,90,29.62,0.2,ESE,13.8,27.6,N/A,Snow,Snow,110,2013-03-18 22:55:00
7:15 PM,28.9,26.6,91,29.60,0.5,ESE,15.0,26.5,0.01,Snow,Snow,110,2013-03-18 23:15:00
7:36 PM,29.1,27.0,92,29.59,0.2,ESE,19.6,29.9,0.01,Snow,Snow,110,2013-03-18 23:36:00
8:16 PM,29.7,27.9,93,29.58,1.2,ESE,16.1,29.9,0.01,Snow,Light Snow,110,2013-03-19 00:16:00
8:36 PM,29.8,27.9,92,29.57,1.8,ESE,19.6,26.5,0.01,Snow,Light Snow,110,2013-03-19 00:36:00
8:55 PM,29.8,27.9,92,29.56,1.5,ESE,13.8,21.9,0.01,Snow,Light Snow,110,2013-03-19 00:55:00
9:16 PM,30.2,28.4,93,29.55,1.0,ESE,11.5,20.7,0.01,Snow,Snow,120,2013-03-19 01:16:00
9:36 PM,29.8,27.3,90,29.55,1.8,ESE,11.5,28.8,0.01,Snow,Light Snow,110,2013-03-19 01:36:00
9:55 PM,29.8,27.3,90,29.53,2.5,ESE,10.4,26.5,0.01,Snow,Light Snow,110,2013-03-19 01:55:00
10:16 PM,29.8,27.3,90,29.52,5.0,ESE,10.4,17.3,N/A,Snow,Light Snow,110,2013-03-19 02:16:00
10:36 PM,29.8,26.6,88,29.52,10.0,ESE,6.9,21.9,N/A,Snow,Light Snow,110,2013-03-19 02:36:00
10:55 PM,29.8,26.6,88,29.51,7.0,ESE,12.7,20.7,N/A,Snow,Light Snow,120,2013-03-19 02:55:00
11:16 PM,29.8,26.6,88,29.50,5.0,ESE,9.2,20.7,N/A,Snow,Light Snow,120,2013-03-19 03:16:00
11:55 PM,29.7,26.6,88,29.48,10.0,ESE,9.2,17.3,N/A,,Overcast,120,2013-03-19 03:55:00